RAM951 LIMC-GMMN

Flight info

Callsign RAM951
Flight time N/A
Altitude 35000
Route NEDED DCT GEKBA DCT VAMTU DCT KOLON DCT GANGU DCT PADKO DCT DIVKO DCT NILDU DCT NENDA/N0442F370 DCT BCN DCT RODRA DCT PEXOT DCT EBROX DCT LOTOS DCT TORDU DCT DIKUT DCT SOPET DCT VLC DCT SERRA DCT ASTRO DCT POBOS DCT XEBAR DCT YES DCT MAMIS DCT BAZAS DCT VIBAS DCT MGA DCT PIMOS DCT GALTO UB11 TUSOR
Aircraft B738/M-SDE2E3FGHIRWXY/LB1

Departure

Time 2026-04-30 20:07
Airport Milan Malpensa International Airport (LIMC)

Arrival

Time N/A
Airport Mohammed V International Airport (GMMN)
Time Latitude Longitude Altitude Speed Heading
2026-04-30 19:34 45.63002 8.71473 738 ft 0 kts 349°
2026-04-30 19:52 45.63001 8.71473 738 ft 0 kts 349°
2026-04-30 19:52 45.62992 8.71476 738 ft 2 kts 348°
2026-04-30 19:52 45.62977 8.71480 738 ft 2 kts 349°
2026-04-30 19:53 45.62962 8.71484 737 ft 2 kts 352°
2026-04-30 19:53 45.62947 8.71482 737 ft 2 kts 20°
2026-04-30 19:53 45.62934 8.71472 737 ft 2 kts 41°
2026-04-30 19:53 45.62924 8.71455 737 ft 2 kts 63°
2026-04-30 19:54 45.62920 8.71443 737 ft 0 kts 77°
2026-04-30 19:54 45.62920 8.71434 737 ft 0 kts 79°
2026-04-30 19:56 45.62920 8.71436 737 ft 2 kts 79°
2026-04-30 19:56 45.62926 8.71481 737 ft 6 kts 79°
2026-04-30 19:56 45.62939 8.71570 737 ft 9 kts 79°
2026-04-30 19:56 45.62952 8.71654 737 ft 7 kts 77°
2026-04-30 19:57 45.62938 8.71736 737 ft 13 kts 137°
2026-04-30 19:57 45.62814 8.71785 735 ft 19 kts 169°
2026-04-30 19:57 45.62679 8.71822 733 ft 19 kts 169°
2026-04-30 19:57 45.62546 8.71861 731 ft 19 kts 168°
2026-04-30 19:58 45.62415 8.71901 728 ft 19 kts 170°
2026-04-30 19:58 45.62277 8.71934 726 ft 21 kts 170°
2026-04-30 19:58 45.62133 8.71974 723 ft 21 kts 169°
2026-04-30 19:58 45.61988 8.72015 720 ft 21 kts 169°
2026-04-30 19:59 45.61839 8.72052 716 ft 21 kts 170°
2026-04-30 19:59 45.61682 8.72097 712 ft 26 kts 168°
2026-04-30 19:59 45.61291 8.72208 702 ft 16 kts 169°
2026-04-30 20:00 45.61177 8.72237 700 ft 17 kts 169°
2026-04-30 20:00 45.61028 8.72279 697 ft 27 kts 169°
2026-04-30 20:00 45.60833 8.72332 694 ft 27 kts 168°
2026-04-30 20:00 45.60726 8.72364 692 ft 11 kts 168°
2026-04-30 20:01 45.60636 8.72541 691 ft 12 kts 96°
2026-04-30 20:01 45.60627 8.72663 690 ft 12 kts 96°
2026-04-30 20:01 45.60619 8.72779 690 ft 12 kts 96°
2026-04-30 20:02 45.60598 8.73049 690 ft 12 kts 97°
2026-04-30 20:02 45.60591 8.73164 690 ft 11 kts 88°
2026-04-30 20:03 45.60750 8.73340 690 ft 19 kts 20°
2026-04-30 20:03 45.60886 8.73409 691 ft 20 kts
2026-04-30 20:03 45.61022 8.73373 693 ft 18 kts 349°
2026-04-30 20:03 45.61142 8.73342 694 ft 16 kts 350°
2026-04-30 20:04 45.61246 8.73315 695 ft 13 kts 349°
2026-04-30 20:04 45.61335 8.73290 697 ft 12 kts 349°
2026-04-30 20:04 45.61423 8.73266 698 ft 12 kts 349°
2026-04-30 20:05 45.61585 8.73227 701 ft 10 kts
2026-04-30 20:05 45.61623 8.73320 701 ft 12 kts 81°
2026-04-30 20:05 45.61585 8.73587 699 ft 17 kts 91°
2026-04-30 20:06 45.61637 8.73718 699 ft 15 kts 17°
2026-04-30 20:06 45.61768 8.73697 701 ft 37 kts 349°
2026-04-30 20:06 45.62246 8.73562 712 ft 101 kts 349°
2026-04-30 20:06 45.63124 8.73317 733 ft 154 kts 349°
2026-04-30 20:07 45.64283 8.73002 1013 ft 177 kts 351°
2026-04-30 20:07 45.65554 8.72696 1483 ft 193 kts 354°
2026-04-30 20:07 45.68467 8.72682 2479 ft 224 kts
2026-04-30 20:08 45.70049 8.72689 3030 ft 235 kts
2026-04-30 20:08 45.71680 8.72620 3811 ft 235 kts 354°
2026-04-30 20:08 45.73214 8.71827 4561 ft 237 kts 324°
2026-04-30 20:08 45.74313 8.70144 5320 ft 237 kts 303°
2026-04-30 20:09 45.75019 8.68017 6048 ft 239 kts 288°
2026-04-30 20:09 45.75180 8.65676 6750 ft 240 kts 262°
2026-04-30 20:09 45.73370 8.61638 7865 ft 251 kts 219°
2026-04-30 20:10 45.70449 8.58833 8838 ft 264 kts 231°
2026-04-30 20:10 45.69490 8.56528 9132 ft 276 kts 246°
2026-04-30 20:10 45.68673 8.53965 9439 ft 290 kts 244°
2026-04-30 20:11 45.65602 8.50307 10489 ft 302 kts 202°
2026-04-30 20:11 45.63582 8.49287 10748 ft 317 kts 199°
2026-04-30 20:11 45.61434 8.48248 11003 ft 332 kts 200°
2026-04-30 20:12 45.56918 8.45801 11546 ft 359 kts 202°
2026-04-30 20:12 45.54590 8.44470 12106 ft 363 kts 202°
2026-04-30 20:12 45.52231 8.43225 12655 ft 367 kts 200°
2026-04-30 20:13 45.49795 8.42022 13261 ft 370 kts 199°
2026-04-30 20:13 45.47352 8.40843 13785 ft 375 kts 199°
2026-04-30 20:13 45.44867 8.39645 14377 ft 379 kts 199°
2026-04-30 20:13 45.42394 8.38446 14969 ft 382 kts 199°
2026-04-30 20:14 45.39869 8.37212 15582 ft 386 kts 199°
2026-04-30 20:14 45.37304 8.35952 16181 ft 389 kts 199°
2026-04-30 20:14 45.34756 8.34696 16721 ft 392 kts 198°
2026-04-30 20:14 45.32172 8.33422 17363 ft 395 kts 198°
2026-04-30 20:15 45.29564 8.32138 17884 ft 400 kts 198°
2026-04-30 20:15 45.26893 8.30822 18414 ft 404 kts 198°
2026-04-30 20:15 45.24255 8.29525 19000 ft 405 kts 198°
2026-04-30 20:15 45.21547 8.28194 19508 ft 409 kts 199°
2026-04-30 20:16 45.18863 8.26877 20057 ft 411 kts 199°
2026-04-30 20:16 45.16140 8.25544 20578 ft 414 kts 199°
2026-04-30 20:16 45.13435 8.24230 21082 ft 417 kts 198°
2026-04-30 20:16 45.10644 8.23053 21549 ft 421 kts 194°
2026-04-30 20:17 45.07745 8.22161 21991 ft 424 kts 190°
2026-04-30 20:17 45.04850 8.21462 22469 ft 427 kts 189°
2026-04-30 20:17 45.01897 8.20835 22942 ft 429 kts 188°
2026-04-30 20:17 44.98941 8.20239 23368 ft 433 kts 188°
2026-04-30 20:18 44.95949 8.19638 23783 ft 436 kts 188°
2026-04-30 20:18 44.92910 8.19022 24224 ft 439 kts 188°
2026-04-30 20:18 44.89922 8.18407 24651 ft 441 kts 188°
2026-04-30 20:18 44.86872 8.17771 25109 ft 443 kts 188°
2026-04-30 20:19 44.83809 8.17127 25465 ft 447 kts 189°
2026-04-30 20:19 44.81727 8.16687 25720 ft 449 kts 189°
2026-04-30 20:19 44.77640 8.15820 26296 ft 451 kts 189°
2026-04-30 20:19 44.74519 8.15148 26683 ft 453 kts 190°
2026-04-30 20:20 44.71424 8.14278 27056 ft 455 kts 195°
2026-04-30 20:20 44.68397 8.12892 27405 ft 456 kts 204°
2026-04-30 20:20 44.65538 8.10962 27800 ft 456 kts 210°
2026-04-30 20:20 44.62752 8.08748 28147 ft 457 kts 213°
2026-04-30 20:21 44.60047 8.06434 28492 ft 459 kts 214°
2026-04-30 20:21 44.57348 8.04063 28878 ft 461 kts 214°
2026-04-30 20:21 44.54597 8.01633 29172 ft 464 kts 214°
2026-04-30 20:21 44.51906 7.99263 29530 ft 465 kts 214°
2026-04-30 20:22 44.49142 7.96844 29880 ft 467 kts 214°
2026-04-30 20:22 44.46387 7.94449 30206 ft 468 kts 214°
2026-04-30 20:22 44.43604 7.92046 30770 ft 464 kts 214°
2026-04-30 20:22 44.40834 7.89668 31212 ft 462 kts 214°
2026-04-30 20:23 44.38071 7.87306 31638 ft 461 kts 214°
2026-04-30 20:23 44.35318 7.84959 31954 ft 462 kts 214°
2026-04-30 20:23 44.32562 7.82615 32322 ft 461 kts 214°
2026-04-30 20:23 44.29799 7.80266 32702 ft 459 kts 214°
2026-04-30 20:24 44.27162 7.77824 33093 ft 456 kts 218°
2026-04-30 20:24 44.24661 7.75141 33457 ft 453 kts 222°
2026-04-30 20:24 44.22237 7.72293 33796 ft 452 kts 224°
2026-04-30 20:24 44.19882 7.69398 34094 ft 451 kts 225°
2026-04-30 20:25 44.15240 7.63581 34775 ft 447 kts 226°
2026-04-30 20:25 44.13047 7.60567 35054 ft 444 kts 230°
2026-04-30 20:26 44.08981 7.54158 35243 ft 444 kts 233°
2026-04-30 20:26 44.03063 7.44400 35253 ft 441 kts 233°
2026-04-30 20:27 43.95115 7.31572 35241 ft 437 kts 232°
2026-04-30 20:28 43.87136 7.18902 35227 ft 435 kts 232°
2026-04-30 20:30 43.77171 7.03185 35218 ft 434 kts 232°
2026-04-30 20:30 43.71769 6.93346 35223 ft 424 kts 245°
2026-04-30 20:31 43.68167 6.82230 35206 ft 422 kts 252°
2026-04-30 20:32 43.62746 6.63434 35197 ft 421 kts 251°
2026-04-30 20:33 43.59446 6.52271 35189 ft 419 kts 251°
2026-04-30 20:34 43.56131 6.41165 35192 ft 418 kts 251°
2026-04-30 20:35 43.52795 6.30043 35181 ft 418 kts 251°
2026-04-30 20:35 43.49473 6.19024 35187 ft 417 kts 251°
2026-04-30 20:36 43.47246 6.11665 35191 ft 416 kts 251°
2026-04-30 20:37 43.43896 6.00631 35187 ft 416 kts 251°
2026-04-30 20:37 43.41660 5.93292 35180 ft 416 kts 251°
2026-04-30 20:38 43.39432 5.86001 35182 ft 414 kts 251°
2026-04-30 20:38 43.37201 5.78716 35179 ft 413 kts 251°
2026-04-30 20:39 43.33856 5.67826 35181 ft 413 kts 251°
2026-04-30 20:40 43.30501 5.56963 35183 ft 412 kts 251°
2026-04-30 20:40 43.28265 5.49745 35174 ft 412 kts 251°
2026-04-30 20:41 43.24902 5.38928 35182 ft 410 kts 251°
2026-04-30 20:41 43.22664 5.31748 35174 ft 411 kts 250°
2026-04-30 20:42 43.20421 5.24579 35170 ft 409 kts 250°
2026-04-30 20:43 43.17067 5.13903 35175 ft 407 kts 250°
2026-04-30 20:43 43.14814 5.06748 35170 ft 407 kts 250°
2026-04-30 20:44 43.11473 4.96172 35179 ft 406 kts 250°
2026-04-30 20:45 43.06934 4.82035 35166 ft 407 kts 248°
2026-04-30 20:45 43.03780 4.75560 35171 ft 415 kts 232°
2026-04-30 20:46 42.95194 4.64911 35159 ft 417 kts 226°
2026-04-30 20:47 42.88610 4.57123 35152 ft 417 kts 226°
2026-04-30 20:48 42.82091 4.49336 35152 ft 415 kts 227°
2026-04-30 20:48 42.77750 4.44139 35154 ft 416 kts 227°
2026-04-30 20:49 42.73416 4.38951 35149 ft 416 kts 227°
2026-04-30 20:50 42.66911 4.31187 35146 ft 416 kts 226°
2026-04-30 20:50 42.62519 4.25957 35140 ft 415 kts 226°
2026-04-30 20:51 42.58201 4.20827 35142 ft 415 kts 226°
2026-04-30 20:51 42.51706 4.13128 35137 ft 413 kts 226°
2026-04-30 20:52 42.47380 4.08012 35134 ft 413 kts 226°
2026-04-30 20:53 42.40884 4.00343 35128 ft 413 kts 226°
2026-04-30 20:53 42.36543 3.95233 35123 ft 414 kts 226°
2026-04-30 20:54 42.30054 3.87613 35127 ft 413 kts 225°
2026-04-30 20:55 42.24120 3.79327 35125 ft 405 kts 236°
2026-04-30 20:55 42.20818 3.73237 35124 ft 405 kts 238°
2026-04-30 20:56 42.15960 3.63891 35123 ft 405 kts 239°
2026-04-30 20:57 42.11077 3.54587 35122 ft 405 kts 238°
2026-04-30 20:57 42.07820 3.48430 35123 ft 404 kts 238°
2026-04-30 20:58 42.02920 3.39212 35124 ft 405 kts 238°
2026-04-30 20:58 41.99636 3.33054 35125 ft 406 kts 237°
2026-04-30 20:59 41.94657 3.23741 35127 ft 405 kts 237°
2026-04-30 21:00 41.88084 3.11491 35131 ft 405 kts 237°
2026-04-30 21:01 41.83129 3.02287 35129 ft 407 kts 237°
2026-04-30 21:02 41.78160 2.93088 35131 ft 408 kts 237°
2026-04-30 21:02 41.74850 2.86974 35131 ft 407 kts 236°
2026-04-30 21:03 41.71541 2.80877 35139 ft 406 kts 236°
2026-04-30 21:03 41.68236 2.74801 35145 ft 405 kts 236°
2026-04-30 21:04 41.64808 2.68770 35140 ft 406 kts 234°
2026-04-30 21:04 41.59590 2.59892 35140 ft 406 kts 234°
2026-04-30 21:05 41.56121 2.53985 35133 ft 406 kts 234°
2026-04-30 21:05 41.52741 2.48220 35133 ft 406 kts 234°
2026-04-30 21:06 41.49206 2.42192 35133 ft 407 kts 234°
2026-04-30 21:06 41.45750 2.36305 35130 ft 407 kts 234°
2026-04-30 21:07 41.42296 2.30432 35127 ft 409 kts 234°
2026-04-30 21:07 41.38820 2.24532 35132 ft 408 kts 233°
2026-04-30 21:08 41.35326 2.18615 35125 ft 409 kts 233°
2026-04-30 21:08 41.31801 2.12656 35128 ft 409 kts 233°
2026-04-30 21:09 41.28199 2.06828 35125 ft 410 kts 230°
2026-04-30 21:09 41.24371 2.01198 35124 ft 410 kts 229°
2026-04-30 21:10 41.20522 1.95616 35123 ft 410 kts 229°
2026-04-30 21:10 41.16700 1.90036 35120 ft 410 kts 230°
2026-04-30 21:11 41.12878 1.84429 35118 ft 410 kts 230°
2026-04-30 21:11 41.09059 1.78819 35119 ft 410 kts 230°
2026-04-30 21:12 41.05237 1.73210 35114 ft 409 kts 230°
2026-04-30 21:12 41.01431 1.67632 35112 ft 408 kts 230°
2026-04-30 21:13 40.97595 1.62017 35115 ft 408 kts 230°
2026-04-30 21:13 40.93797 1.56470 35115 ft 408 kts 230°
2026-04-30 21:14 40.90007 1.50944 35111 ft 408 kts 230°
2026-04-30 21:14 40.86185 1.45383 35110 ft 408 kts 230°
2026-04-30 21:15 40.82380 1.39859 35109 ft 406 kts 230°
2026-04-30 21:15 40.78577 1.34349 35110 ft 406 kts 229°
2026-04-30 21:16 40.74771 1.28843 35108 ft 408 kts 229°
2026-04-30 21:16 40.70959 1.23340 35106 ft 405 kts 229°
2026-04-30 21:17 40.67155 1.17856 35105 ft 404 kts 229°
2026-04-30 21:17 40.63360 1.12388 35102 ft 405 kts 229°
2026-04-30 21:18 40.59563 1.06928 35105 ft 403 kts 229°
2026-04-30 21:18 40.57663 1.04200 34981 ft 403 kts 229°
2026-04-30 21:18 40.55789 1.01511 35080 ft 403 kts 229°
2026-04-30 21:19 40.51970 0.96043 35100 ft 405 kts 229°
2026-04-30 21:19 40.48183 0.90635 35099 ft 402 kts 229°
2026-04-30 21:20 40.44389 0.85227 35100 ft 401 kts 229°
2026-04-30 21:20 40.40599 0.79836 35097 ft 401 kts 229°
2026-04-30 21:21 40.36830 0.74482 35100 ft 401 kts 229°
2026-04-30 21:22 40.31150 0.66432 35100 ft 400 kts 229°
2026-04-30 21:23 40.23605 0.55772 35102 ft 398 kts 229°
2026-04-30 21:23 40.17956 0.47818 35103 ft 396 kts 229°
2026-04-30 21:24 40.14188 0.42526 35105 ft 399 kts 229°
2026-04-30 21:24 40.10436 0.37265 35103 ft 396 kts 229°
2026-04-30 21:25 40.04785 0.29360 35105 ft 396 kts 229°
2026-04-30 21:26 39.99141 0.21483 35107 ft 395 kts 228°
2026-04-30 21:27 39.93556 0.13692 35111 ft 394 kts 228°
2026-04-30 21:27 39.89859 0.08549 35106 ft 391 kts 228°
2026-04-30 21:28 39.84195 0.00688 35108 ft 393 kts 228°
2026-04-30 21:29 39.78580 -0.07081 35107 ft 392 kts 228°
2026-04-30 21:30 39.69198 -0.20022 35104 ft 393 kts 227°
2026-04-30 21:31 39.59769 -0.32961 35114 ft 394 kts 228°
2026-04-30 21:32 39.54118 -0.40692 35116 ft 395 kts 227°
2026-04-30 21:32 39.50349 -0.45833 35114 ft 393 kts 227°
2026-04-30 21:33 39.45063 -0.53914 35117 ft 392 kts 234°
2026-04-30 21:34 39.41812 -0.59604 35118 ft 392 kts 234°
2026-04-30 21:34 39.36921 -0.68084 35120 ft 394 kts 233°
2026-04-30 21:35 39.33614 -0.73742 35128 ft 393 kts 233°
2026-04-30 21:35 39.30314 -0.79351 35136 ft 393 kts 233°
2026-04-30 21:36 39.27017 -0.84941 35139 ft 392 kts 232°
2026-04-30 21:37 39.20409 -0.96100 35146 ft 391 kts 232°
2026-04-30 21:37 39.17114 -1.01651 35163 ft 391 kts 232°
2026-04-30 21:38 39.13805 -1.07219 35156 ft 391 kts 232°
2026-04-30 21:38 39.10497 -1.12776 35145 ft 391 kts 232°
2026-04-30 21:39 39.07202 -1.18297 35155 ft 391 kts 232°
2026-04-30 21:39 39.03888 -1.23842 35151 ft 391 kts 232°
2026-04-30 21:40 39.00576 -1.29381 35152 ft 392 kts 232°
2026-04-30 21:40 38.97231 -1.34959 35152 ft 392 kts 232°